Volver al catálogo

STARLINK-11508

ActivoComunicacionesVLEO
NORAD 62515·PAYLOAD·🇺🇸 United States

Lanzado Jan 8, 2025 desde Cape Canaveral Space Force Station

Loading…

Próximos Pases (próximas 24 horas)

TLE

ActualizadoSource: CelesTrak SupGP

Época: Sep 14, 2026, 21:12 UTC

1 62515C 25004E   26257.88381944  .00061711  00000+0  47908-3 0  2570
2 62515  43.0008  10.1499 0001701 266.1267 174.4589 15.70819043    16

Sigue STARLINK-11508 en tiempo real con AllMySat

Download on the App Store